Regional Weather Roundup
Issued by NWS

Home | Current Version | Previous Version | Text Only | Print | Product List | Glossary Off
Versions: 1 2 3 4 5 6 7 8 9 10 11 12 13 14 15 16 17 18 19 20 21 22 23 24 25 26 27 28 29 30 31 32 33 34 35 36 37 38 39 40 41 42 43 44 45 46 47 48 49 50

000
ASUS44 KMEG 020110
RWRTN
TENNESSEE HOURLY STATE WEATHER ROUNDUP
NATIONAL WEATHER SERVICE MEMPHIS TN
700 PM CST THU DEC 01 2016

TNZ002-004-019-021-049-052-054-088>092-020200-
WEST TENNESSEE

CITY           SKY/WX    TMP DP  RH WIND       PRES   REMARKS
MEMPHIS INTL   PTCLDY    44  31  60 S7        30.10R
NWS MEMPHIS      N/A     42 N/A N/A MISG        N/A
JACKSON        PTCLDY    38  31  76 CALM      30.11R
DYERSBURG      CLEAR    N/A N/A N/A CALM      30.10S
UNION CITY     CLEAR     36  28  75 CALM      30.08R
PARIS          CLEAR     34  25  69 CALM      30.09R
HUNTINGDON     PTCLDY    37  30  75 CALM      30.09R
LEXINGTON      CLEAR     37  28  70 CALM      30.09R
$$

TNZ008-025-027-028-033-062-065-066-020200-
NORTH MIDDLE TENNESSEE

CITY           SKY/WX    TMP DP  RH WIND       PRES   REMARKS
NASHVILLE      CLEAR     45  26  47 W3        30.08R
PORTLAND       CLEAR     39  28  65 CALM      30.07R
CLARKSVILLE    CLEAR     40  26  57 W7        30.08R
SMYRNA         CLEAR     38  30  73 CALM      30.09R
CROSSVILLE     CLEAR     34  26  72 SW3       30.05R
$$

TNZ061-075-076-078-094-096-097-020200-
SOUTH MIDDLE TENNESSEE

CITY           SKY/WX    TMP DP  RH WIND       PRES   REMARKS
TULLAHOMA      CLEAR     34  28  80 CALM      30.08R
WINCHESTER     CLEAR     36  30  80 CALM      30.08R
MCMINNVILLE    CLEAR     36  28  75 CALM      30.07R
COLUMBIA       CLEAR     43  28  56 CALM      30.07S
SHELBYVILLE    CLEAR     37  34  87 S3        30.09R
$$

TNZ017-018-042-046-047-020200-
NORTHEAST TENNESSEE

CITY           SKY/WX    TMP DP  RH WIND       PRES   REMARKS
TRI CITIES     CLEAR     37  30  75 SW6       30.02R WCI  32
$$

TNZ012-013-036-069-073-074-020200-
CENTRAL EAST TENNESSEE

CITY           SKY/WX    TMP DP  RH WIND       PRES   REMARKS
KNOXVILLE      PTCLDY    43  30  60 W7        30.03R
OAK RIDGE      CLEAR     42  29  59 CALM      30.06R
DOWNTOWN KNOXV CLEAR     41  34  75 CALM      30.05R
GATLINBURG     CLEAR     37  30  75 CALM      30.03S
MORRISTOWN     PTCLDY    39  32  75 CALM      30.02R
JACKSBORO      CLEAR     36  32  87 CALM      30.06S
$$

TNZ083-085-099-020200-
SOUTHEAST TENNESSEE

CITY           SKY/WX    TMP DP  RH WIND       PRES   REMARKS
CHATTANOOGA    CLEAR     44  31  60 CALM      30.07R
$$

SKY/WX REPORTED AS FAIR MEANS FEW OR NO CLOUDS BELOW
12 THOUSAND FEET.





USA.gov is the U.S. government's official web portal to all federal, state and local government web resources and services.